N285SF -KOLV

Flight info

Callsign N285SF
Flight time N/A
Altitude
Route
Aircraft C172/L-VGD/C

Departure

Time N/A
Airport -

Arrival

Time 2026-04-12 20:34
Airport Olive Branch Airport (KOLV)
Time Latitude Longitude Altitude Speed Heading
2026-04-12 20:18 35.10154 -90.12520 1499 ft 98 kts 111°
2026-04-12 20:18 35.09972 -90.11724 1500 ft 97 kts 118°
2026-04-12 20:18 35.09760 -90.10941 1508 ft 98 kts 118°
2026-04-12 20:18 35.09539 -90.10132 1514 ft 102 kts 118°
2026-04-12 20:19 35.09317 -90.09312 1516 ft 101 kts 119°
2026-04-12 20:19 35.09106 -90.08493 1512 ft 101 kts 118°
2026-04-12 20:19 35.08865 -90.07694 1518 ft 101 kts 120°
2026-04-12 20:19 35.08619 -90.06878 1522 ft 104 kts 119°
2026-04-12 20:20 35.08371 -90.06051 1522 ft 104 kts 119°
2026-04-12 20:20 35.08108 -90.05224 1522 ft 105 kts 120°
2026-04-12 20:20 35.07852 -90.04379 1522 ft 106 kts 117°
2026-04-12 20:20 35.07614 -90.03524 1517 ft 106 kts 116°
2026-04-12 20:21 35.07372 -90.02679 1520 ft 106 kts 117°
2026-04-12 20:21 35.07123 -90.01824 1521 ft 108 kts 118°
2026-04-12 20:21 35.06898 -90.00945 1519 ft 110 kts 112°
2026-04-12 20:21 35.06737 -90.00035 1516 ft 109 kts 113°
2026-04-12 20:22 35.06617 -89.99147 1524 ft 103 kts 110°
2026-04-12 20:22 35.06478 -89.98322 1518 ft 99 kts 116°
2026-04-12 20:22 35.06316 -89.97522 1522 ft 95 kts 120°
2026-04-12 20:22 35.06123 -89.96759 1519 ft 94 kts 120°
2026-04-12 20:23 35.05923 -89.96001 1525 ft 95 kts 121°
2026-04-12 20:23 35.05690 -89.95230 1533 ft 97 kts 129°
2026-04-12 20:23 35.05341 -89.94510 1541 ft 101 kts 131°
2026-04-12 20:23 35.04989 -89.93764 1540 ft 101 kts 132°
2026-04-12 20:24 35.04634 -89.93013 1538 ft 103 kts 131°
2026-04-12 20:24 35.04279 -89.92254 1537 ft 103 kts 130°
2026-04-12 20:24 35.03923 -89.91493 1537 ft 103 kts 131°
2026-04-12 20:24 35.03569 -89.90737 1534 ft 103 kts 131°
2026-04-12 20:25 35.03209 -89.89970 1535 ft 105 kts 130°
2026-04-12 20:25 35.02845 -89.89194 1519 ft 105 kts 130°
2026-04-12 20:25 35.02482 -89.88417 1516 ft 105 kts 130°
2026-04-12 20:25 35.02124 -89.87651 1513 ft 104 kts 131°
2026-04-12 20:26 35.01766 -89.86888 1516 ft 104 kts 130°
2026-04-12 20:26 35.01407 -89.86124 1514 ft 103 kts 131°
2026-04-12 20:26 35.01050 -89.85364 1509 ft 103 kts 131°
2026-04-12 20:26 35.00697 -89.84610 1512 ft 102 kts 131°
2026-04-12 20:27 35.00349 -89.83864 1511 ft 101 kts 132°
2026-04-12 20:27 35.00005 -89.83117 1388 ft 103 kts 129°
2026-04-12 20:27 34.99649 -89.82429 1339 ft 87 kts 139°
2026-04-12 20:27 34.99436 -89.81698 1221 ft 104 kts 106°
2026-04-12 20:28 34.99561 -89.80819 1102 ft 101 kts 87°
2026-04-12 20:28 34.99699 -89.80083 950 ft 79 kts 94°
2026-04-12 20:28 34.99455 -89.79489 770 ft 83 kts 123°
2026-04-12 20:28 34.99359 -89.78850 659 ft 68 kts 118°
2026-04-12 20:29 34.99018 -89.78725 560 ft 56 kts 184°
2026-04-12 20:29 34.98646 -89.78643 644 ft 56 kts 181°
2026-04-12 20:29 34.98195 -89.78636 753 ft 72 kts 185°
2026-04-12 20:29 34.97698 -89.78656 864 ft 68 kts 181°
2026-04-12 20:30 34.97174 -89.78642 906 ft 84 kts 181°
2026-04-12 20:30 34.96594 -89.78629 1044 ft 78 kts 188°
2026-04-12 20:30 34.96192 -89.79039 1115 ft 86 kts 242°
2026-04-12 20:30 34.96261 -89.79845 1147 ft 101 kts 276°
2026-04-12 20:31 34.96507 -89.80621 1306 ft 105 kts 300°
2026-04-12 20:31 34.97214 -89.81001 1336 ft 122 kts 356°
2026-04-12 20:31 34.98055 -89.80927 1323 ft 122 kts
2026-04-12 20:31 34.98899 -89.80847 1305 ft 122 kts
2026-04-12 20:32 34.99769 -89.80770 1307 ft 125 kts
2026-04-12 20:32 35.00602 -89.80592 1290 ft 119 kts 30°
2026-04-12 20:32 35.01117 -89.79885 1073 ft 111 kts 86°
2026-04-12 20:32 35.01180 -89.79004 903 ft 95 kts 108°
2026-04-12 20:33 35.00790 -89.78575 845 ft 74 kts 185°
2026-04-12 20:33 35.00289 -89.78670 777 ft 71 kts 188°
2026-04-12 20:33 34.99819 -89.78688 665 ft 63 kts 184°
2026-04-12 20:33 34.99392 -89.78660 556 ft 61 kts 178°
2026-04-12 20:34 34.99022 -89.78673 509 ft 52 kts 188°
2026-04-12 20:34 34.98644 -89.78690 434 ft 56 kts 186°
2026-04-12 20:34 34.98369 -89.78694 405 ft 23 kts 179°
2026-04-12 20:34 34.98158 -89.78693 410 ft 50 kts 185°
2026-04-12 20:35 34.97779 -89.78657 603 ft 56 kts 182°
2026-04-12 20:35 34.97350 -89.78657 762 ft 66 kts 182°
2026-04-12 20:35 34.96892 -89.78740 937 ft 70 kts 216°
2026-04-12 20:35 34.96812 -89.79398 1099 ft 91 kts 268°
2026-04-12 20:36 34.96979 -89.80167 1290 ft 102 kts 298°
2026-04-12 20:36 34.97689 -89.80515 1404 ft 121 kts 358°
2026-04-12 20:36 34.98557 -89.80519 1447 ft 126 kts
2026-04-12 20:36 34.99420 -89.80464 1398 ft 122 kts 10°
2026-04-12 20:37 35.00052 -89.79941 1222 ft 104 kts 73°
2026-04-12 20:37 35.00164 -89.79173 991 ft 86 kts 103°
2026-04-12 20:37 34.99879 -89.78688 778 ft 69 kts 176°
2026-04-12 20:37 34.99415 -89.78683 666 ft 66 kts 188°
2026-04-12 20:38 34.99099 -89.78679 575 ft 67 kts 186°
2026-04-12 20:38 34.98695 -89.78692 438 ft 51 kts 185°
2026-04-12 20:38 34.98444 -89.78695 406 ft 21 kts 179°
2026-04-12 20:38 34.98229 -89.78691 405 ft 53 kts 179°
2026-04-12 20:39 34.97828 -89.78682 570 ft 63 kts 182°
2026-04-12 20:39 34.97382 -89.78693 786 ft 64 kts 180°
2026-04-12 20:39 34.96971 -89.78896 941 ft 73 kts 233°
2026-04-12 20:39 34.96999 -89.79554 1081 ft 89 kts 280°
2026-04-12 20:40 34.97238 -89.80209 1293 ft 83 kts 285°
2026-04-12 20:40 34.97778 -89.80657 1348 ft 107 kts 339°